Погода во Флориде

Уругвай     34°05′42″S   56°12′41″W
темп.,
°C
ветер,
м/с
пор.,
м/с
влажн.,
%
обл.,
%
осадки,
мм/ч
давл.,
гПа
погр.,
м
9 августа, вт
вт900:00+9вюв3970100 0.0 1029323
03:00+7юв377899 0.0 1029170
06:00+5юв2286100 0.0 103029
09:00+8юв267852 0.0 1032214
12:00+13юв66545 0.0 10311215
15:00+14юв56495 0.0 10291603
18:00+9ююв48684 0.0 1030186
21:00+5ююв37900 0.0 1032125
10 августа, ср
ср1000:00+4вюв22940 0.0 103135
03:00+3в22940 0.0 103011
06:00+3всв22930 0.0 102919
09:00+6вюв11810 0.0 1030103
12:00+12всв34495 0.0 1029787
15:00+14ссв445160 0.0 10261175
18:00+10св3373100 0.0 102539
21:00+8св3680100 0.0 1026101
11 августа, чт
чт1100:00+6ссв35895 0.0 102688
03:00+5ссв36930 0.0 102593
06:00+4ссв35920 0.0 102586
09:00+7с47820 0.0 1026195
12:00+14с56620 0.0 1025832
15:00+16с67560 0.0 10221176
18:00+11ссв46800 0.0 1021106
21:00+9ссв49920 0.0 1022152
12 августа, пт
пт1200:00+7ссв49935 0.0 1022160
03:00+7ссв4119565 0.0 1021206
06:00+7ссв41196100 0.0 1020224
09:00+10ссв51187100 0.0 1020315
12:00+16ссв6965100 0.0 1018723
15:00+18с6762100 0.0 10161114
18:00+14ссв3685100 0.0 1015104
21:00+12ссв41094100 0.0 1017196
13 августа, сб
сб1300:00+11с49960 0.0 1017179
03:00+10с37960 0.0 1017138
06:00+10с35960 0.0 101778
09:00+13с23890 0.0 1018119
12:00+18ссв22690 0.0 1018674
15:00+20св33600 0.0 10161070
18:00+16св33790 0.0 101638
21:00+13св35910 0.0 101772